TURKMENALEM52E/MONACOSAT

Last updated on Thu Jul 03 2025 00:02:46 GMT+0000 (Coordinated Universal Time)

1 40617U 15023A 25183.56086475 .00000111 00000+0 00000+0 0 9990 2 40617 0.0344 91.7726 0002742 7.2430 75.7324 1.00271731 37341
UTC large
Height (km)
Speed (km/s)
/
Latitude / Longitude
Inclination (degrees)
Orbital Period (minutes)
Azimuth
Elevation
Range (km)
Doppler Factor

Next 0 passes for location: London (51.5072 / 0.1276)

Sorry there are no passes over London.